Tracking 35274 objects as of 10-Sep-2026
HD Live streaming from Space Station
objects crossing your sky now

COSMOS 886 DEB


COSMOS 886 DEB is no longer on orbit


NORAD ID: 9720
Int'l Code: 1976-126R
Launch date: December 27, 1976
Source: Commonwealth of Independent States (former USSR) (CIS)
Launch site: TYURATAM MISSILE AND SPACE COMPLEX (TTMTR)
Decay date: 1981-10-09

Note: This is SATELLITE DEBRIS
Your satellite tracking list
Your tracking list is empty




NASA's NSSDC Master Catalog

Two Line Element Set (TLE):
1 09720U 76126  R 81282.57976996  .06536499 +64303-5 +79579-2 0  9991
2 09720 065.7102 027.5412 0069756 304.9887 053.9233 16.02719974069370
Source of the keplerian elements: AFSPC